Showing default

SES MPOWER-F13, 100688

Orbit data source: Space-Track

SES MPOWER-F13, 100688 is a Luxembourger payload satellite that was launched on Sun, 13 Sep 2026 UTC launched from the Air Force Eastern Test Range (AFETR). Payload-class satellites include a variety of spacecraft equipped with specific instruments for various scientific and technological missions. These include communications satellites like Starlink; space stations such as the ISS; scientific satellites like the Hubble; Earth observation satellites from companies like Planet Labs, Umbra, and HawkEye 360; GPS; miniature CubeSats for education and research; and military/defense satellites.

Loading next visibility...
Identifier
100688, 2026-208C
Orbit
Active
Country
Flag of LULU / SES
Related business
None
Manufacturer
Unknown
Mission
Operational spacecraft
Bus & Motor
Unknown
Mass
Unknown
Launch date (UTC)
2026-09-13 (2 days ago)
Launch vehicle
Unknown
Launch site
Air Force Eastern Test Range (AFETR)
Object type
Payload
Rocket body
Debris
Shape & HBR
Unknown
Radar Cross Section
RCS unknown

Expand to show TLE details & history
Last TLE update: 1 day ago

TLE from 1 day ago
0 SES MPOWER-F13
1 A0688U 26208C   26257.08538620  .00006097  00000-0  35870-3 0  9992
2 A0688  16.9000 115.8049 3226916 181.3599 177.5328  8.88192871    19
Epoch: 2026-09-14T02:02Z
TLE epoch observation values (Epoch: 2026-09-14T02:02:57.367Z)
Latitude
0.00001°
Longitude
91.99514°
Altitude
6,644.575 km
Speed
4.557 km/s
True Right ascension
07h 43m 13s
True Declination
0° 00' 00"
Sunlit
Object was in daylight at epoch
Visualization orbit readout
Latitude
Unknown
Longitude
Unknown
Altitude
Unknown
Speed
Unknown
Apparent Right ascension
Unknown
Apparent Declination
Unknown
Sunlit
N/A
Visualization observer readout
Local Sidereal Time
02:10:52
Azimuth
Unknown
Elevation
Unknown
Doppler factor
Unknown
Orbital elements
Apogee altitude
6,655.299 km
Perigee altitude
295.872 km
Semi-major axis
9,853.723 km
Eccentricity
0.32269
Inclination
16.9°
RAAN
115.8049°
Arg. of periapsis
181.3599°
True anomaly
178.6651°
Mean anomaly
177.5328°
Eccentric anomaly
178.13463°
Mean motion
2.21893 °/min
Orbital period
162.24 mins
BSTAR
0.0003587
Loading maneuver chart data...
Computing Atmospheric mass density...
Loading historical data...
Loading historical data...
Loading historical data...
Loading historical data...
Loading historical data...
Loading historical data...
Loading historical data...
Other satellites on launch #208 in the year 2026 (2026-09-13 UTC)

Documentation

Showing up to 5 results
|